This is the latest recevied weather packets stored in our database for station/object SLG. If no packets are shown the sender has not sent any weather packets the latest 10 day(s).
| Time | Temp. | Humidity | Pressure | Rain* | Wind** | Luminosity | Snow |
|---|---|---|---|---|---|---|---|
| 1778002330 | 16.67° C | 60% | 1005 hPa | 0.25 mm | - | - | - |
| 1778000530 | 17.78° C | 56% | 1004.6 hPa | 0.25 mm | - | - | - |
| 1777998731 | 18.33° C | 56% | 1004.6 hPa | 0.25 mm | - | - | - |
| 1777995130 | 17.78° C | 64% | 1004.5 hPa | 0.25 mm | - | - | - |
| 1777993336 | 17.22° C | 64% | 1004.6 hPa | 0.25 mm | - | - | - |
| 1777991532 | 16.67° C | 66% | 1004.6 hPa | 0.25 mm | - | - | - |
| 1777989730 | 16.11° C | 71% | 1004.9 hPa | 0.25 mm | - | - | - |
| 1777987930 | 15.56° C | 77% | 1005 hPa | 0.25 mm | - | - | - |
| 1777986130 | 15.56° C | 76% | 1004.9 hPa | 0.25 mm | - | - | - |
| 1777984330 | 16.11° C | 73% | 1005.1 hPa | 0.25 mm | - | - | - |
| 1777982530 | 17.22° C | 70% | 1005.1 hPa | 0 mm | - | - | - |
| 1777980730 | 17.78° C | 65% | 1005.4 hPa | 0 mm | - | - | - |
| 1777978931 | 16.67° C | 66% | 1005.1 hPa | 0 mm | - | - | - |
| 1777977131 | 16.67° C | 69% | 1005 hPa | 0 mm | - | - | - |
| 1777975332 | 16.67° C | 70% | 1005.1 hPa | 0 mm | - | - | - |
| 1777973532 | 16.11° C | 68% | 1005.3 hPa | 0 mm | - | - | - |
| 1777971732 | 16.11° C | 69% | 1005.5 hPa | 0 mm | - | - | - |
| 1777969931 | 16.11° C | 68% | 1005.5 hPa | 0 mm | - | - | - |
| 1777968130 | 16.11° C | 67% | 1005.8 hPa | 0 mm | - | - | - |
| 1777966330 | 15.56° C | 70% | 1005.8 hPa | 0 mm | - | - | - |
| 1777964531 | 13.33° C | 83% | 1006.1 hPa | 0 mm | - | - | - |
| 1777962731 | 11.67° C | 90% | 1006.2 hPa | 0 mm | - | - | - |
| 1777960932 | 8.89° C | 89% | 1006.4 hPa | 0 mm | - | - | - |
| 1777959131 | 7.22° C | 86% | 1006.5 hPa | 0 mm | - | - | - |
| 1777957331 | 7.22° C | 84% | 1006.5 hPa | 0 mm | - | - | - |
* Rain since midnight (hover to see other rain measurements)
** Current wind speed in m/s (hover to see current wind gust speed)